Overview Statistics Trail Chart Weather Telemetry Raw packets
 

This is the latest recevied weather packets stored in our database for station/object SV4JYD-13. If no packets are shown the sender has not sent any weather packets the latest 10 day(s).

<< 9 10 11 12 13 14 15 >>
Time Temp. Humidity Pressure Rain* Wind** Luminosity Snow
1777788662 9.44° C 93% 1018 hPa 0 mm - - -
1777787762 10° C 96% 1018 hPa 0 mm - - -
1777786861 10° C 92% 1018 hPa 0 mm - - -
1777785961 9.44° C 92% 1018 hPa 0 mm - - -
1777785061 8.89° C 90% 1018 hPa 0 mm - - -
1777784161 7.78° C 84% 1018 hPa 0 mm - - -
1777783260 7.78° C 88% 1018 hPa 0 mm - - -
1777782360 8.33° C 94% 1018 hPa 0 mm - - -
1777781460 8.33° C 94% 1018 hPa 0 mm - - -
1777780560 8.89° C 95% 1018 hPa 0 mm - - -
1777779659 9.44° C 96% 1018 hPa 0 mm - - -
1777778759 8.89° C 98% 1018 hPa 0 mm - - -
1777777859 8.33° C 99% 1018 hPa 0 mm - - -
1777776959 8.89° C 10% - 0 mm - - -
1777776058 8.89° C 10% - 0 mm - - -
1777775158 8.33° C 10% - 0 mm - - -
1777774258 8.89° C 10% - 0 mm - - -
1777773358 8.33° C 10% - 0 mm - - -
1777772457 8.33° C 10% - 0 mm - - -
1777771557 8.33° C 10% - 0 mm - - -
1777770657 8.33° C 10% - 0 mm - - -
1777769757 7.78° C 10% - 0 mm - - -
1777768856 7.78° C 10% - 0 mm - - -
1777767956 7.78° C 10% - 0 mm - - -
1777767056 8.33° C 99% 1019 hPa 0 mm - - -

* Rain latest hour (hover to see other rain measurements)
** Current wind speed in m/s (hover to see current wind gust speed)